Location: Bacea
(45.9500°N, 22.6667°E)
Time: 11:45:07
(UTC+00:00)

Cosmos 489 Rocket - Pass Details

Date: 29 May 2022
Orbit: 952 x 983 km, 74.0° (Epoch: 03 July)

Event Time Altitude Azimuth Distance (km) Brightness Sun altitude
Rises 23:44:18 0° 346° (NNW) 3,645 8.4 -20.1°
Reaches altitude 10° 23:47:45 10° 4° (N) 2,699 7.9 -19.9°
Maximum altitude 23:51:56 18° 47° (NE) 2,159 7.1 -19.6°
Drops below altitude 10° 23:56:07 10° 89° (E) 2,703 7.1 -19.3°
Sets 23:59:32 0° 108° (ESE) 3,652 7.6 -19.1°
